{"data":{"norad_id":55915,"epoch":"2026-09-20T05:06:43.085088Z","epoch_age_seconds":127870,"freshness":"FRESH","line1":"1 55915U 23037B   26263.21299867  .00001071  00000+0  97562-4 0  9994","line2":"2 55915  70.0000 174.0448 0002957 270.7362  89.3459 14.98331537193300","mean_motion":14.98331537,"eccentricity":0.0002957,"inclination_deg":70,"raan_deg":174.0448,"arg_perigee_deg":270.7362,"mean_anomaly_deg":89.3459,"bstar":9.7562e-5,"rev_number":19330,"period_min":96.106900538395,"perigee_km":569.99596727039,"apogee_km":574.10630853514,"semimajor_km":6950.1881379028,"source":"CELESTRAK","updated_at":"2026-09-21T09:00:33.322342Z"}}